Year,Month,Day,Hour,Minute,Value (Times are PST for temperature in C)
2017,07,20,00,00,18.30
2017,07,20,00,01,18.30
2017,07,20,00,02,18.30
2017,07,20,00,03,18.30
2017,07,20,00,04,18.30
2017,07,20,00,05,18.30
2017,07,20,00,06,18.30
2017,07,20,00,07,18.30
2017,07,20,00,08,18.30
2017,07,20,00,09,18.30
2017,07,20,00,10,18.30
2017,07,20,00,11,18.30
2017,07,20,00,12,18.30
2017,07,20,00,13,18.30
2017,07,20,00,14,18.30
2017,07,20,00,15,18.30
2017,07,20,00,16,18.30
2017,07,20,00,17,18.30
2017,07,20,00,18,18.20
2017,07,20,00,19,18.20
2017,07,20,00,20,18.20
2017,07,20,00,21,18.20
2017,07,20,00,22,18.10
2017,07,20,00,23,18.10
2017,07,20,00,24,18.10
2017,07,20,00,25,18.10
2017,07,20,00,26,18.10
2017,07,20,00,27,18.10
2017,07,20,00,28,18.10
2017,07,20,00,29,18.00
2017,07,20,00,30,18.00
2017,07,20,00,31,18.00
2017,07,20,00,32,18.00
2017,07,20,00,33,18.00
2017,07,20,00,34,18.00
2017,07,20,00,35,18.00
2017,07,20,00,36,17.90
2017,07,20,00,37,17.90
2017,07,20,00,38,17.90
2017,07,20,00,39,17.90
2017,07,20,00,40,17.90
2017,07,20,00,41,17.90
2017,07,20,00,42,17.90
2017,07,20,00,43,17.90
2017,07,20,00,44,17.90
2017,07,20,00,45,17.90
2017,07,20,00,46,17.90
2017,07,20,00,47,17.90
2017,07,20,00,48,17.90
2017,07,20,00,49,17.90
2017,07,20,00,50,17.90
2017,07,20,00,51,17.90
2017,07,20,00,52,17.90
2017,07,20,00,53,17.90
2017,07,20,00,54,17.90
2017,07,20,00,55,18.00
2017,07,20,00,56,18.00
2017,07,20,00,57,18.00
2017,07,20,00,58,18.00
2017,07,20,00,59,18.10
2017,07,20,01,00,18.10
2017,07,20,01,01,18.10
2017,07,20,01,02,18.10
2017,07,20,01,03,18.10
2017,07,20,01,04,18.10
2017,07,20,01,05,18.10
2017,07,20,01,06,18.10
2017,07,20,01,07,18.10
2017,07,20,01,08,18.10
2017,07,20,01,09,18.10
2017,07,20,01,10,18.10
2017,07,20,01,11,18.10
2017,07,20,01,12,18.10
2017,07,20,01,13,18.10
2017,07,20,01,14,18.00
2017,07,20,01,15,18.00
2017,07,20,01,16,18.00
2017,07,20,01,17,18.00
2017,07,20,01,18,18.00
2017,07,20,01,19,17.90
2017,07,20,01,20,17.90
2017,07,20,01,21,17.90
2017,07,20,01,22,17.90
2017,07,20,01,23,17.90
2017,07,20,01,24,17.80
2017,07,20,01,25,17.80
2017,07,20,01,26,17.80
2017,07,20,01,27,17.80
2017,07,20,01,28,17.80
2017,07,20,01,29,17.70
2017,07,20,01,30,17.70
2017,07,20,01,31,17.70
2017,07,20,01,32,17.70
2017,07,20,01,33,17.70
2017,07,20,01,34,17.70
2017,07,20,01,35,17.70
2017,07,20,01,36,17.70
2017,07,20,01,37,17.70
2017,07,20,01,38,17.80
2017,07,20,01,39,17.80
2017,07,20,01,40,17.80
2017,07,20,01,41,17.80
2017,07,20,01,42,17.80
2017,07,20,01,43,17.80
2017,07,20,01,44,17.80
2017,07,20,01,45,17.90
2017,07,20,01,46,17.90
2017,07,20,01,47,18.00
2017,07,20,01,48,18.00
2017,07,20,01,49,18.00
2017,07,20,01,50,18.10
2017,07,20,01,51,18.10
2017,07,20,01,52,18.10
2017,07,20,01,53,18.10
2017,07,20,01,54,18.10
2017,07,20,01,55,18.20
2017,07,20,01,56,18.20
2017,07,20,01,57,18.20
2017,07,20,01,58,18.20
2017,07,20,01,59,18.20
2017,07,20,02,00,18.20
2017,07,20,02,01,18.20
2017,07,20,02,02,18.20
2017,07,20,02,03,18.20
2017,07,20,02,04,18.20
2017,07,20,02,05,18.20
2017,07,20,02,06,18.20
2017,07,20,02,07,18.20
2017,07,20,02,08,18.20
2017,07,20,02,09,18.20
2017,07,20,02,10,18.20
2017,07,20,02,11,18.20
2017,07,20,02,12,18.20
2017,07,20,02,13,18.20
2017,07,20,02,14,18.20
2017,07,20,02,15,18.10
2017,07,20,02,16,17.80
2017,07,20,02,17,17.40
2017,07,20,02,18,17.10
2017,07,20,02,19,16.70
2017,07,20,02,20,16.30
2017,07,20,02,21,16.00
2017,07,20,02,22,15.90
2017,07,20,02,23,15.90
2017,07,20,02,24,15.90
2017,07,20,02,25,15.90
2017,07,20,02,26,15.90
2017,07,20,02,27,15.80
2017,07,20,02,28,15.70
2017,07,20,02,29,15.50
2017,07,20,02,30,15.40
2017,07,20,02,31,15.30
2017,07,20,02,32,15.20
2017,07,20,02,33,15.10
2017,07,20,02,34,15.10
2017,07,20,02,35,15.10
2017,07,20,02,36,15.10
2017,07,20,02,37,15.10
2017,07,20,02,38,15.20
2017,07,20,02,39,15.20
2017,07,20,02,40,15.20
2017,07,20,02,41,15.20
2017,07,20,02,42,15.10
2017,07,20,02,43,15.10
2017,07,20,02,44,15.10
2017,07,20,02,45,15.10
2017,07,20,02,46,15.10
2017,07,20,02,47,15.10
2017,07,20,02,48,15.10
2017,07,20,02,49,15.10
2017,07,20,02,50,15.10
2017,07,20,02,51,15.10
2017,07,20,02,52,15.10
2017,07,20,02,53,15.10
2017,07,20,02,54,15.20
2017,07,20,02,55,15.20
2017,07,20,02,56,15.40
2017,07,20,02,57,15.50
2017,07,20,02,58,15.60
2017,07,20,02,59,15.70
2017,07,20,03,00,15.80
2017,07,20,03,01,16.00
2017,07,20,03,02,16.10
2017,07,20,03,03,16.20
2017,07,20,03,04,16.30
2017,07,20,03,05,16.40
2017,07,20,03,06,16.50
2017,07,20,03,07,16.50
2017,07,20,03,08,16.60
2017,07,20,03,09,16.60
2017,07,20,03,10,16.60
2017,07,20,03,11,16.60
2017,07,20,03,12,16.60
2017,07,20,03,13,16.60
2017,07,20,03,14,16.60
2017,07,20,03,15,16.60
2017,07,20,03,16,16.60
2017,07,20,03,17,16.50
2017,07,20,03,18,16.50
2017,07,20,03,19,16.50
2017,07,20,03,20,16.40
2017,07,20,03,21,16.40
2017,07,20,03,22,16.40
2017,07,20,03,23,16.40
2017,07,20,03,24,16.30
2017,07,20,03,25,16.10
2017,07,20,03,26,15.80
2017,07,20,03,27,15.50
2017,07,20,03,28,15.20
2017,07,20,03,29,15.00
2017,07,20,03,30,14.80
2017,07,20,03,31,14.70
2017,07,20,03,32,14.60
2017,07,20,03,33,14.40
2017,07,20,03,34,14.30
2017,07,20,03,35,14.10
2017,07,20,03,36,14.00
2017,07,20,03,37,13.90
2017,07,20,03,38,13.90
2017,07,20,03,39,13.90
2017,07,20,03,40,13.90
2017,07,20,03,41,13.90
2017,07,20,03,42,13.90
2017,07,20,03,43,13.90
2017,07,20,03,44,13.90
2017,07,20,03,45,13.90
2017,07,20,03,46,13.90
2017,07,20,03,47,13.90
2017,07,20,03,48,13.90
2017,07,20,03,49,13.90
2017,07,20,03,50,13.90
2017,07,20,03,51,13.80
2017,07,20,03,52,13.70
2017,07,20,03,53,13.60
2017,07,20,03,54,13.60
2017,07,20,03,55,13.60
2017,07,20,03,56,13.60
2017,07,20,03,57,13.60
2017,07,20,03,58,13.70
2017,07,20,03,59,13.70
2017,07,20,04,00,13.70
2017,07,20,04,01,13.70
2017,07,20,04,02,13.80
2017,07,20,04,03,13.80
2017,07,20,04,04,13.80
2017,07,20,04,05,13.80
2017,07,20,04,06,13.80
2017,07,20,04,07,13.80
2017,07,20,04,08,13.80
2017,07,20,04,09,13.80
2017,07,20,04,10,13.80
2017,07,20,04,11,13.80
2017,07,20,04,12,13.70
2017,07,20,04,13,13.70
2017,07,20,04,14,13.70
2017,07,20,04,15,13.70
2017,07,20,04,16,13.70
2017,07,20,04,17,13.60
2017,07,20,04,18,13.60
2017,07,20,04,19,13.60
2017,07,20,04,20,13.60
2017,07,20,04,21,13.60
2017,07,20,04,22,13.60
2017,07,20,04,23,13.60
2017,07,20,04,24,13.60
2017,07,20,04,25,13.60
2017,07,20,04,26,13.60
2017,07,20,04,27,13.60
2017,07,20,04,28,13.60
2017,07,20,04,29,13.70
2017,07,20,04,30,13.70
2017,07,20,04,31,13.80
2017,07,20,04,32,13.80
2017,07,20,04,33,13.90
2017,07,20,04,34,13.90
2017,07,20,04,35,14.00
2017,07,20,04,36,14.00
2017,07,20,04,37,14.10
2017,07,20,04,38,14.10
2017,07,20,04,39,14.20
2017,07,20,04,40,14.20
2017,07,20,04,41,14.30
2017,07,20,04,42,14.30
2017,07,20,04,43,14.30
2017,07,20,04,44,14.30
2017,07,20,04,45,14.30
2017,07,20,04,46,14.40
2017,07,20,04,47,14.40
2017,07,20,04,48,14.40
2017,07,20,04,49,14.40
2017,07,20,04,50,14.40
2017,07,20,04,51,14.50
2017,07,20,04,52,14.50
2017,07,20,04,53,14.50
2017,07,20,04,54,14.50
2017,07,20,04,55,14.60
2017,07,20,04,56,14.60
2017,07,20,04,57,14.60
2017,07,20,04,58,14.60
2017,07,20,04,59,14.60
2017,07,20,05,00,14.60
2017,07,20,05,01,14.70
2017,07,20,05,02,14.70
2017,07,20,05,03,14.70
2017,07,20,05,04,14.70
2017,07,20,05,05,14.70
2017,07,20,05,06,14.70
2017,07,20,05,07,14.70
2017,07,20,05,08,14.70
2017,07,20,05,09,14.70
2017,07,20,05,10,14.70
2017,07,20,05,11,14.70
2017,07,20,05,12,14.60
2017,07,20,05,13,14.60
2017,07,20,05,14,14.60
2017,07,20,05,15,14.60
2017,07,20,05,16,14.60
2017,07,20,05,17,14.60
2017,07,20,05,18,14.60
2017,07,20,05,19,14.60
2017,07,20,05,20,14.60
2017,07,20,05,21,14.60
2017,07,20,05,22,14.60
2017,07,20,05,23,14.50
2017,07,20,05,24,14.50
2017,07,20,05,25,14.50
2017,07,20,05,26,14.50
2017,07,20,05,27,14.50
2017,07,20,05,28,14.50
2017,07,20,05,29,14.50
2017,07,20,05,30,14.60
2017,07,20,05,31,14.60
2017,07,20,05,32,14.60
2017,07,20,05,33,14.60
2017,07,20,05,34,14.60
2017,07,20,05,35,14.60
2017,07,20,05,36,14.60
2017,07,20,05,37,14.50
2017,07,20,05,38,14.50
2017,07,20,05,39,14.50
2017,07,20,05,40,14.50
2017,07,20,05,41,14.40
2017,07,20,05,42,14.40
2017,07,20,05,43,14.40
2017,07,20,05,44,14.40
2017,07,20,05,45,14.40
2017,07,20,05,46,14.30
2017,07,20,05,47,14.30
2017,07,20,05,48,14.30
2017,07,20,05,49,14.30
2017,07,20,05,50,14.30
2017,07,20,05,51,14.30
2017,07,20,05,52,14.30
2017,07,20,05,53,14.30
2017,07,20,05,54,14.30
2017,07,20,05,55,14.30
2017,07,20,05,56,14.30
2017,07,20,05,57,14.30
2017,07,20,05,58,14.20
2017,07,20,05,59,14.20
2017,07,20,06,00,14.20
2017,07,20,06,01,14.10
2017,07,20,06,02,14.10
2017,07,20,06,03,14.10
2017,07,20,06,04,14.10
2017,07,20,06,05,14.10
2017,07,20,06,06,14.00
2017,07,20,06,07,14.00
2017,07,20,06,08,13.90
2017,07,20,06,09,13.90
2017,07,20,06,10,13.70
2017,07,20,06,11,13.60
2017,07,20,06,12,13.50
2017,07,20,06,13,13.40
2017,07,20,06,14,13.30
2017,07,20,06,15,13.20
2017,07,20,06,16,13.20
2017,07,20,06,17,13.10
2017,07,20,06,18,13.10
2017,07,20,06,19,13.00
2017,07,20,06,20,12.90
2017,07,20,06,21,12.90
2017,07,20,06,22,12.80
2017,07,20,06,23,12.80
2017,07,20,06,24,12.80
2017,07,20,06,25,12.70
2017,07,20,06,26,12.70
2017,07,20,06,27,12.70
2017,07,20,06,28,12.70
2017,07,20,06,29,12.70
2017,07,20,06,30,12.70
2017,07,20,06,31,12.70
2017,07,20,06,32,12.70
2017,07,20,06,33,12.70
2017,07,20,06,34,12.60
2017,07,20,06,35,12.60
2017,07,20,06,36,12.60
2017,07,20,06,37,12.60
2017,07,20,06,38,12.60
2017,07,20,06,39,12.60
2017,07,20,06,40,12.60
2017,07,20,06,41,12.60
2017,07,20,06,42,12.60
2017,07,20,06,43,12.60
2017,07,20,06,44,12.60
2017,07,20,06,45,12.60
2017,07,20,06,46,12.70
2017,07,20,06,47,12.70
2017,07,20,06,48,12.80
2017,07,20,06,49,12.80
2017,07,20,06,50,12.80
2017,07,20,06,51,12.90
2017,07,20,06,52,12.90
2017,07,20,06,53,12.90
2017,07,20,06,54,12.90
2017,07,20,06,55,13.00
2017,07,20,06,56,13.00
2017,07,20,06,57,13.00
2017,07,20,06,58,13.00
2017,07,20,06,59,13.00
2017,07,20,07,00,13.00
2017,07,20,07,01,13.00
2017,07,20,07,02,13.00
2017,07,20,07,03,13.00
2017,07,20,07,04,13.00
2017,07,20,07,05,13.00
2017,07,20,07,06,13.00
2017,07,20,07,07,13.00
2017,07,20,07,08,13.10
2017,07,20,07,09,13.10
2017,07,20,07,10,13.10
2017,07,20,07,11,13.10
2017,07,20,07,12,13.10
2017,07,20,07,13,13.10
2017,07,20,07,14,13.10
2017,07,20,07,15,13.10
2017,07,20,07,16,13.10
2017,07,20,07,17,13.10
2017,07,20,07,18,13.10
2017,07,20,07,19,13.10
2017,07,20,07,20,13.10
2017,07,20,07,21,13.10
2017,07,20,07,22,13.10
2017,07,20,07,23,13.20
2017,07,20,07,24,13.20
2017,07,20,07,25,13.20
2017,07,20,07,26,13.20
2017,07,20,07,27,13.20
2017,07,20,07,28,13.20
2017,07,20,07,29,13.20
2017,07,20,07,30,13.20
2017,07,20,07,31,13.20
2017,07,20,07,32,13.20
2017,07,20,07,33,13.20
2017,07,20,07,34,13.20
2017,07,20,07,35,13.20
2017,07,20,07,36,13.20
2017,07,20,07,37,13.20
2017,07,20,07,38,13.20
2017,07,20,07,39,13.20
2017,07,20,07,40,13.20
2017,07,20,07,41,13.20
2017,07,20,07,42,13.20
2017,07,20,07,43,13.20
2017,07,20,07,44,13.30
2017,07,20,07,45,13.30
2017,07,20,07,46,13.30
2017,07,20,07,47,13.30
2017,07,20,07,48,13.30
2017,07,20,07,49,13.30
2017,07,20,07,50,13.30
2017,07,20,07,51,13.20
2017,07,20,07,52,13.20
2017,07,20,07,53,13.20
2017,07,20,07,54,13.20
2017,07,20,07,55,13.20
2017,07,20,07,56,13.20
2017,07,20,07,57,13.20
2017,07,20,07,58,13.20
2017,07,20,07,59,13.20
2017,07,20,08,00,13.20
2017,07,20,08,01,13.20
2017,07,20,08,02,13.20
2017,07,20,08,03,13.30
2017,07,20,08,04,13.30
2017,07,20,08,05,13.30
2017,07,20,08,06,13.30
2017,07,20,08,07,13.30
2017,07,20,08,08,13.30
2017,07,20,08,09,13.30
2017,07,20,08,10,13.30
2017,07,20,08,11,13.30
2017,07,20,08,12,13.30
2017,07,20,08,13,13.30
2017,07,20,08,14,13.30
2017,07,20,08,15,13.20
2017,07,20,08,16,13.20
2017,07,20,08,17,13.20
2017,07,20,08,18,13.20
2017,07,20,08,19,13.20
2017,07,20,08,20,13.10
2017,07,20,08,21,13.10
2017,07,20,08,22,13.10
2017,07,20,08,23,13.10
2017,07,20,08,24,13.10
2017,07,20,08,25,13.10
2017,07,20,08,26,13.10
2017,07,20,08,27,13.10
2017,07,20,08,28,13.10
2017,07,20,08,29,13.10
2017,07,20,08,30,13.10
2017,07,20,08,31,13.10
2017,07,20,08,32,13.20
2017,07,20,08,33,13.20
2017,07,20,08,34,13.20
2017,07,20,08,35,13.20
2017,07,20,08,36,13.30
2017,07,20,08,37,13.30
2017,07,20,08,38,13.30
2017,07,20,08,39,13.30
2017,07,20,08,40,13.40
2017,07,20,08,41,13.40
2017,07,20,08,42,13.40
2017,07,20,08,43,13.50
2017,07,20,08,44,13.60
2017,07,20,08,45,13.60
2017,07,20,08,46,13.50
2017,07,20,08,47,13.50
2017,07,20,08,48,13.50
2017,07,20,08,49,13.50
2017,07,20,08,50,13.60
2017,07,20,08,51,13.70
2017,07,20,08,52,13.80
2017,07,20,08,53,13.80
2017,07,20,08,54,14.00
2017,07,20,08,55,14.00
2017,07,20,08,56,14.10
2017,07,20,08,57,14.20
2017,07,20,08,58,14.20
2017,07,20,08,59,14.30
2017,07,20,09,00,14.30
2017,07,20,09,01,14.30
2017,07,20,09,02,14.40
2017,07,20,09,03,14.40
2017,07,20,09,04,14.50
2017,07,20,09,05,14.60
2017,07,20,09,06,14.60
2017,07,20,09,07,14.60
2017,07,20,09,08,14.60
2017,07,20,09,09,14.60
2017,07,20,09,10,14.70
2017,07,20,09,11,14.70
2017,07,20,09,12,14.70
2017,07,20,09,13,14.70
2017,07,20,09,14,14.70
2017,07,20,09,15,14.70
2017,07,20,09,16,14.70
2017,07,20,09,17,14.60
2017,07,20,09,18,14.60
2017,07,20,09,19,14.60
2017,07,20,09,20,14.60
2017,07,20,09,21,14.60
2017,07,20,09,22,14.50
2017,07,20,09,23,14.50
2017,07,20,09,24,14.50
2017,07,20,09,25,14.50
2017,07,20,09,26,14.50
2017,07,20,09,27,14.50
2017,07,20,09,28,14.50
2017,07,20,09,29,14.50
2017,07,20,09,30,14.50
2017,07,20,09,31,14.40
2017,07,20,09,32,14.40
2017,07,20,09,33,14.40
2017,07,20,09,34,14.30
2017,07,20,09,35,14.30
2017,07,20,09,36,14.30
2017,07,20,09,37,14.30
2017,07,20,09,38,14.30
2017,07,20,09,39,14.30
2017,07,20,09,40,14.30
2017,07,20,09,41,14.30
2017,07,20,09,42,14.30
2017,07,20,09,43,14.30
2017,07,20,09,44,14.30
2017,07,20,09,45,14.30
2017,07,20,09,46,14.30
2017,07,20,09,47,14.40
2017,07,20,09,48,14.40
2017,07,20,09,49,14.40
2017,07,20,09,50,14.40
2017,07,20,09,51,14.50
2017,07,20,09,52,14.50
2017,07,20,09,53,14.50
2017,07,20,09,54,14.50
2017,07,20,09,55,14.50
2017,07,20,09,56,14.50
2017,07,20,09,57,14.50
2017,07,20,09,58,14.50
2017,07,20,09,59,14.50
2017,07,20,10,00,14.50
2017,07,20,10,01,14.50
2017,07,20,10,02,14.60
2017,07,20,10,03,14.60
2017,07,20,10,04,14.60
2017,07,20,10,05,14.70
2017,07,20,10,06,14.70
2017,07,20,10,07,14.80
2017,07,20,10,08,14.80
2017,07,20,10,09,14.70
2017,07,20,10,10,14.60
2017,07,20,10,11,14.40
2017,07,20,10,12,14.30
2017,07,20,10,13,14.20
2017,07,20,10,14,14.20
2017,07,20,10,15,14.30
2017,07,20,10,16,14.30
2017,07,20,10,17,14.40
2017,07,20,10,18,14.50
2017,07,20,10,19,14.50
2017,07,20,10,20,14.50
2017,07,20,10,21,14.50
2017,07,20,10,22,14.60
2017,07,20,10,23,14.60
2017,07,20,10,24,14.70
2017,07,20,10,25,14.70
2017,07,20,10,26,14.80
2017,07,20,10,27,14.80
2017,07,20,10,28,14.90
2017,07,20,10,29,15.00
2017,07,20,10,30,15.10
2017,07,20,10,31,15.10
2017,07,20,10,32,15.20
2017,07,20,10,33,15.20
2017,07,20,10,34,15.40
2017,07,20,10,35,15.50
2017,07,20,10,36,15.50
2017,07,20,10,37,15.50
2017,07,20,10,38,15.50
2017,07,20,10,39,15.70
2017,07,20,10,40,15.90
2017,07,20,10,41,16.30
2017,07,20,10,42,16.60
2017,07,20,10,43,16.80
2017,07,20,10,44,17.10
2017,07,20,10,45,17.30
2017,07,20,10,46,17.50
2017,07,20,10,47,17.70
2017,07,20,10,48,17.80
2017,07,20,10,49,17.90
2017,07,20,10,50,18.10
2017,07,20,10,51,18.20
2017,07,20,10,52,18.10
2017,07,20,10,53,18.00
2017,07,20,10,54,17.90
2017,07,20,10,55,18.00
2017,07,20,10,56,18.10
2017,07,20,10,57,18.20
2017,07,20,10,58,18.20
2017,07,20,10,59,18.30
2017,07,20,11,00,18.20
2017,07,20,11,01,18.10
2017,07,20,11,02,17.90
2017,07,20,11,03,17.50
2017,07,20,11,04,17.30
2017,07,20,11,05,17.10
2017,07,20,11,06,16.90
2017,07,20,11,07,16.60
2017,07,20,11,08,16.40
2017,07,20,11,09,16.30
2017,07,20,11,10,16.20
2017,07,20,11,11,16.10
2017,07,20,11,12,15.90
2017,07,20,11,13,15.70
2017,07,20,11,14,15.50
2017,07,20,11,15,15.40
2017,07,20,11,16,15.30
2017,07,20,11,17,15.30
2017,07,20,11,18,15.30
2017,07,20,11,19,15.30
2017,07,20,11,20,15.40
2017,07,20,11,21,15.40
2017,07,20,11,22,15.50
2017,07,20,11,23,15.60
2017,07,20,11,24,15.80
2017,07,20,11,25,15.90
2017,07,20,11,26,16.00
2017,07,20,11,27,16.10
2017,07,20,11,28,16.20
2017,07,20,11,29,16.10
2017,07,20,11,30,16.10
2017,07,20,11,31,16.00
2017,07,20,11,32,16.10
2017,07,20,11,33,16.10
2017,07,20,11,34,16.20
2017,07,20,11,35,16.30
2017,07,20,11,36,16.40
2017,07,20,11,37,16.50
2017,07,20,11,38,16.60
2017,07,20,11,39,16.50
2017,07,20,11,40,16.30
2017,07,20,11,41,16.00
2017,07,20,11,42,15.80
2017,07,20,11,43,15.60
2017,07,20,11,44,15.40
2017,07,20,11,45,15.30
2017,07,20,11,46,15.30
2017,07,20,11,47,15.20
2017,07,20,11,48,15.20
2017,07,20,11,49,15.20
2017,07,20,11,50,15.20
2017,07,20,11,51,15.20
2017,07,20,11,52,15.20
2017,07,20,11,53,15.20
2017,07,20,11,54,15.10
2017,07,20,11,55,15.00
2017,07,20,11,56,15.00
2017,07,20,11,57,14.90
2017,07,20,11,58,15.00
2017,07,20,11,59,15.00
2017,07,20,12,00,15.00
2017,07,20,12,01,15.10
2017,07,20,12,02,15.10
2017,07,20,12,03,15.10
2017,07,20,12,04,15.20
2017,07,20,12,05,15.30
2017,07,20,12,06,15.30
2017,07,20,12,07,15.30
2017,07,20,12,08,15.10
2017,07,20,12,09,15.00
2017,07,20,12,10,14.90
2017,07,20,12,11,14.80
2017,07,20,12,12,14.80
2017,07,20,12,13,14.80
2017,07,20,12,14,14.90
2017,07,20,12,15,15.00
2017,07,20,12,16,15.20
2017,07,20,12,17,15.30
2017,07,20,12,18,15.50
2017,07,20,12,19,15.70
2017,07,20,12,20,15.90
2017,07,20,12,21,16.10
2017,07,20,12,22,16.20
2017,07,20,12,23,16.40
2017,07,20,12,24,16.60
2017,07,20,12,25,16.70
2017,07,20,12,26,16.80
2017,07,20,12,27,16.90
2017,07,20,12,28,17.00
2017,07,20,12,29,17.00
2017,07,20,12,30,17.00
2017,07,20,12,31,16.90
2017,07,20,12,32,16.90
2017,07,20,12,33,16.90
2017,07,20,12,34,16.90
2017,07,20,12,35,17.00
2017,07,20,12,36,17.00
2017,07,20,12,37,17.10
2017,07,20,12,38,17.10
2017,07,20,12,39,17.10
2017,07,20,12,40,17.20
2017,07,20,12,41,17.20
2017,07,20,12,42,17.20
2017,07,20,12,43,17.30
2017,07,20,12,44,17.40
2017,07,20,12,45,17.50
2017,07,20,12,46,17.60
2017,07,20,12,47,17.70
2017,07,20,12,48,17.70
2017,07,20,12,49,17.60
2017,07,20,12,50,17.60
2017,07,20,12,51,17.60
2017,07,20,12,52,17.70
2017,07,20,12,53,17.70
2017,07,20,12,54,17.80
2017,07,20,12,55,17.90
2017,07,20,12,56,18.00
2017,07,20,12,57,18.20
2017,07,20,12,58,18.30
2017,07,20,12,59,18.40
2017,07,20,13,00,18.40
2017,07,20,13,01,18.30
2017,07,20,13,02,18.20
2017,07,20,13,03,18.20
2017,07,20,13,04,18.30
2017,07,20,13,05,18.30
2017,07,20,13,06,18.30
2017,07,20,13,07,18.10
2017,07,20,13,08,18.00
2017,07,20,13,09,17.90
2017,07,20,13,10,17.80
2017,07,20,13,11,17.80
2017,07,20,13,12,17.80
2017,07,20,13,13,17.90
2017,07,20,13,14,18.00
2017,07,20,13,15,18.20
2017,07,20,13,16,18.30
2017,07,20,13,17,18.50
2017,07,20,13,18,18.80
2017,07,20,13,19,19.10
2017,07,20,13,20,19.30
2017,07,20,13,21,19.50
2017,07,20,13,22,19.70
2017,07,20,13,23,19.90
2017,07,20,13,24,20.00
2017,07,20,13,25,20.20
2017,07,20,13,26,20.30
2017,07,20,13,27,20.40
2017,07,20,13,28,20.40
2017,07,20,13,29,20.50
2017,07,20,13,30,20.40
2017,07,20,13,31,20.30
2017,07,20,13,32,20.30
2017,07,20,13,33,20.30
2017,07,20,13,34,20.30
2017,07,20,13,35,20.30
2017,07,20,13,36,20.30
2017,07,20,13,37,20.30
2017,07,20,13,38,20.30
2017,07,20,13,39,20.30
2017,07,20,13,40,20.40
2017,07,20,13,41,20.50
2017,07,20,13,42,20.50
2017,07,20,13,43,20.60
2017,07,20,13,44,20.60
2017,07,20,13,45,20.60
2017,07,20,13,46,20.60
2017,07,20,13,47,20.60
2017,07,20,13,48,20.60
2017,07,20,13,49,20.50
2017,07,20,13,50,20.50
2017,07,20,13,51,20.50
2017,07,20,13,52,20.60
2017,07,20,13,53,20.60
2017,07,20,13,54,20.60
2017,07,20,13,55,20.60
2017,07,20,13,56,20.60
2017,07,20,13,57,20.60
2017,07,20,13,58,20.60
2017,07,20,13,59,20.50
2017,07,20,14,00,20.50
2017,07,20,14,01,20.50
2017,07,20,14,02,20.40
2017,07,20,14,03,20.40
2017,07,20,14,04,20.40
2017,07,20,14,05,20.30
2017,07,20,14,06,20.30
2017,07,20,14,07,20.30
2017,07,20,14,08,20.20
2017,07,20,14,09,20.20
2017,07,20,14,10,20.10
2017,07,20,14,11,20.00
2017,07,20,14,12,20.00
2017,07,20,14,13,19.90
2017,07,20,14,14,19.90
2017,07,20,14,15,20.00
2017,07,20,14,16,20.00
2017,07,20,14,17,20.10
2017,07,20,14,18,20.10
2017,07,20,14,19,20.10
2017,07,20,14,20,20.20
2017,07,20,14,21,20.20
2017,07,20,14,22,20.20
2017,07,20,14,23,20.20
2017,07,20,14,24,20.30
2017,07,20,14,25,20.20
2017,07,20,14,26,20.20
2017,07,20,14,27,20.20
2017,07,20,14,28,20.20
2017,07,20,14,29,20.20
2017,07,20,14,30,20.20
2017,07,20,14,31,20.20
2017,07,20,14,32,20.20
2017,07,20,14,33,20.20
2017,07,20,14,34,20.20
2017,07,20,14,35,20.20
2017,07,20,14,36,20.20
2017,07,20,14,37,20.20
2017,07,20,14,38,20.20
2017,07,20,14,39,20.20
2017,07,20,14,40,20.10
2017,07,20,14,41,20.10
2017,07,20,14,42,20.10
2017,07,20,14,43,20.10
2017,07,20,14,44,20.10
2017,07,20,14,45,20.10
2017,07,20,14,46,20.10
2017,07,20,14,47,20.10
2017,07,20,14,48,20.10
2017,07,20,14,49,20.10
2017,07,20,14,50,20.10
2017,07,20,14,51,20.10
2017,07,20,14,52,20.10
2017,07,20,14,53,20.10
2017,07,20,14,54,20.20
2017,07,20,14,55,20.20
2017,07,20,14,56,20.20
2017,07,20,14,57,20.30
2017,07,20,14,58,20.30
2017,07,20,14,59,20.30
2017,07,20,15,00,20.30
2017,07,20,15,01,20.40
2017,07,20,15,02,20.30
2017,07,20,15,03,20.30
2017,07,20,15,04,20.30
2017,07,20,15,05,20.20
2017,07,20,15,06,20.20
2017,07,20,15,07,20.20
2017,07,20,15,08,20.20
2017,07,20,15,09,20.20
2017,07,20,15,10,20.20
2017,07,20,15,11,20.20
2017,07,20,15,12,20.20
2017,07,20,15,13,20.20
2017,07,20,15,14,20.30
2017,07,20,15,15,20.30
2017,07,20,15,16,20.30
2017,07,20,15,17,20.30
2017,07,20,15,18,20.30
2017,07,20,15,19,20.30
2017,07,20,15,20,20.30
2017,07,20,15,21,20.20
2017,07,20,15,22,20.20
2017,07,20,15,23,20.20
2017,07,20,15,24,20.20
2017,07,20,15,25,20.20
2017,07,20,15,26,20.20
2017,07,20,15,27,20.20
2017,07,20,15,28,20.10
2017,07,20,15,29,20.10
2017,07,20,15,30,20.00
2017,07,20,15,31,20.00
2017,07,20,15,32,20.00
2017,07,20,15,33,19.90
2017,07,20,15,34,19.90
2017,07,20,15,35,19.90
2017,07,20,15,36,19.90
2017,07,20,15,37,19.90
2017,07,20,15,38,19.80
2017,07,20,15,39,19.80
2017,07,20,15,40,19.80
2017,07,20,15,41,19.80
2017,07,20,15,42,19.80
2017,07,20,15,43,19.80
2017,07,20,15,44,19.70
2017,07,20,15,45,19.70
2017,07,20,15,46,19.70
2017,07,20,15,47,19.70
2017,07,20,15,48,19.60
2017,07,20,15,49,19.60
2017,07,20,15,50,19.60
2017,07,20,15,51,19.60
2017,07,20,15,52,19.60
2017,07,20,15,53,19.50
2017,07,20,15,54,19.40
2017,07,20,15,55,19.40
2017,07,20,15,56,19.30
2017,07,20,15,57,19.30
2017,07,20,15,58,19.20
2017,07,20,15,59,19.10
2017,07,20,16,00,19.10
2017,07,20,16,01,19.00
2017,07,20,16,02,19.00
2017,07,20,16,03,18.90
2017,07,20,16,04,18.90
2017,07,20,16,05,18.80
2017,07,20,16,06,18.80
2017,07,20,16,07,18.70
2017,07,20,16,08,18.70
2017,07,20,16,09,18.60
2017,07,20,16,10,18.60
2017,07,20,16,11,18.60
2017,07,20,16,12,18.60
2017,07,20,16,13,18.60
2017,07,20,16,14,18.60
2017,07,20,16,15,18.60
2017,07,20,16,16,18.60
2017,07,20,16,17,18.60
2017,07,20,16,18,18.60
2017,07,20,16,19,18.60
2017,07,20,16,20,18.60
2017,07,20,16,21,18.60
2017,07,20,16,22,18.70
2017,07,20,16,23,18.70
2017,07,20,16,24,18.80
2017,07,20,16,25,18.80
2017,07,20,16,26,18.80
2017,07,20,16,27,18.90
2017,07,20,16,28,18.90
2017,07,20,16,29,18.90
2017,07,20,16,30,18.90
2017,07,20,16,31,19.00
2017,07,20,16,32,19.00
2017,07,20,16,33,19.10
2017,07,20,16,34,19.10
2017,07,20,16,35,19.10
2017,07,20,16,36,19.20
2017,07,20,16,37,19.20
2017,07,20,16,38,19.20
2017,07,20,16,39,19.20
2017,07,20,16,40,19.30
2017,07,20,16,41,19.30
2017,07,20,16,42,19.30
2017,07,20,16,43,19.30
2017,07,20,16,44,19.30
2017,07,20,16,45,19.30
2017,07,20,16,46,19.30
2017,07,20,16,47,19.30
2017,07,20,16,48,19.30
2017,07,20,16,49,19.30
2017,07,20,16,50,19.30
2017,07,20,16,51,19.30
2017,07,20,16,52,19.30
2017,07,20,16,53,19.20
2017,07,20,16,54,19.20
2017,07,20,16,55,19.20
2017,07,20,16,56,19.20
2017,07,20,16,57,19.20
2017,07,20,16,58,19.10
2017,07,20,16,59,19.10
2017,07,20,17,00,19.10
2017,07,20,17,01,19.00
2017,07,20,17,02,19.00
2017,07,20,17,03,19.00
2017,07,20,17,04,18.90
2017,07,20,17,05,18.90
2017,07,20,17,06,18.90
2017,07,20,17,07,18.90
2017,07,20,17,08,18.90
2017,07,20,17,09,18.90
2017,07,20,17,10,18.90
2017,07,20,17,11,19.00
2017,07,20,17,12,19.00
2017,07,20,17,13,19.00
2017,07,20,17,14,19.00
2017,07,20,17,15,19.00
2017,07,20,17,16,19.00
2017,07,20,17,17,19.00
2017,07,20,17,18,19.00
2017,07,20,17,19,19.00